Погода в Семцах

Россия / Брянская область     52°48′38″N   33°27′29″E
темп.,
°C
ветер,
м/с
пор.,
м/с
влажн.,
%
обл.,
%
осадки,
мм/ч
давл.,
гПа
погр.,
м
21 июня, пн
пн2100:00+19в3108997 0.0 1018209
03:00+18в388798 0.0 1019189
06:00+18в388772 0.0 1018180
09:00+24в596696 0.0 1017449
12:00+28в575471 0.0 1017842
15:00+29вюв575317 0.0 10161055
18:00+27вюв486388 0.0 1016659
21:00+23вюв4107993 0.0 1017343
22 июня, вт
вт2200:00+19юв3109211 0.0 1017226
03:00+17вюв37935 0.0 1018130
06:00+18вюв37875 0.0 1018149
09:00+24вюв48650 0.0 1018402
12:00+29вюв57485 0.0 10171002
15:00+30юв57485 0.0 10171463
18:00+28юв4862100 0.0 1017715
21:00+22вюв368829 0.0 1018113
23 июня, ср
ср2300:00+20вюв369695 0.0 1018103
03:00+20вюв369640 0.0 1018108
06:00+20в279041 0.0 1019156
09:00+26в4866100 0.0 1018417
12:00+30в575055 0.0 1018955
15:00+31в5652100 0.0 10181315
18:00+29в476593 0.0 1017758
21:00+24вюв358787 0.0 101888
24 июня, чт
чт2400:00+21вюв229466 0.0 101825
03:00+20вюв229235 0.0 101815
06:00+20всв228712 0.0 101852
09:00+26вюв246585 0.0 1018378
12:00+29вюв3554100 0.0 1018822
15:00+32юв344341 0.0 10171960
18:00+30ю246096 0.0 1017599
21:00+24ююв34793 0.0 101753
25 июня, пт
пт2500:00+22ю118841 0.0 101711
03:00+21ююв11885 0.0 101711
06:00+22юв23885 0.0 101775
09:00+27ююв23694 0.0 1017453
12:00+30ююв34525 0.0 10161150
15:00+32юз23466 0.0 10151928
18:00+22в6889100 11.9 1016233
21:00+18всв3685100 18.8 101590